Flag for U.S.A. Weather past 2 weeks in Ontario, California, U.S.A.

Now
78 °F

Sunny.


Feels Like: 79 °F
Forecast: 60 / 82 °F
Wind: 6 mph from Northwest

Location: Ontario International Airport

Current Time: Sep 4, 2015 at 2:05:53 PM

Latest Report: Sep 4, 2015 at 12:53 PM


Visibility: 10 mi

Pressure: 29.83 "Hg

Humidity: 42%

Dew point: 53 °F

Location of OntarioLocation

Historic Weather in Ontario — Graph

°F

Ontario temperature yesterday

Maximum temperature yesterday: 85 °F (at 3:53 PM)
Minimum temperature yesterday: 62 °F (at 3:53 AM)
Average temperature yesterday: 69 °F

Past Weeks' High & Low Weather Summary

 TemperatureHumidityPressure
High105 °F (Aug 28, 2:53 PM)87% (Aug 22, 1:53 AM)29.97 "Hg (Aug 22, 1:53 AM)
Low62 °F (Sep 3, 3:53 AM)14% (Aug 28, 2:53 PM)29.75 "Hg (Aug 28, 4:53 PM)
Average78 °F55%29.86 "Hg
* Reported Aug 20 12:53 PM — Sep 4 12:53 PM, Ontario, Weather by CustomWeather, © 2015

Note: Actual official high and low records may vary slightly from our data, if they occured in-between our weather recording intervals... More about our weather records

Advertising

Ontario weather history for previous 24 hours

 ConditionsComfort  
Time TempWeatherWind HumidityBarometerVisibility
12:53 PM
Fri, Sep 4
78 °FSunny.6 mph42%29.83 "Hg10 mi
11:53 AM75 °FPassing clouds.6 mph47%29.86 "Hg10 mi
10:53 AM72 °FPartly sunny.5 mph52%29.87 "Hg10 mi
9:53 AM70 °FPartly sunny.3 mph59%29.88 "Hg10 mi
8:53 AM66 °FPartly sunny.No wind70%29.88 "Hg10 mi
7:53 AM65 °FOvercast.3 mph73%29.87 "Hg10 mi
6:53 AM65 °FOvercast.No wind73%29.85 "Hg10 mi
5:53 AM65 °FOvercast.5 mph73%29.84 "Hg10 mi
4:53 AM65 °FOvercast.7 mph73%29.83 "Hg10 mi
3:53 AM64 °FOvercast.8 mph75%29.82 "Hg10 mi
2:53 AM64 °FOvercast.5 mph78%29.83 "Hg10 mi
1:53 AM62 °FPassing clouds.3 mph80%29.83 "Hg10 mi
12:53 AM63 °FClear.5 mph78%29.84 "Hg10 mi
11:53 PM
Thu, Sep 3
64 °FClear.6 mph78%29.84 "Hg10 mi
10:53 PM65 °FClear.8 mph76%29.85 "Hg10 mi
9:53 PM66 °FClear.6 mph73%29.85 "Hg10 mi
8:53 PM68 °FClear.9 mph68%29.82 "Hg10 mi
7:53 PM70 °FSunny.13 mph61%29.79 "Hg10 mi
6:53 PM74 °FSunny.13 mph53%29.78 "Hg10 mi
5:53 PM78 °FSunny.16 mph46%29.77 "Hg10 mi
4:53 PM81 °FSunny.14 mph39%29.77 "Hg10 mi
3:53 PM85 °FSunny.10 mph30%29.77 "Hg10 mi
2:53 PM83 °FSunny.9 mph33%29.80 "Hg10 mi
Weather by CustomWeather, © 2015

See weather overviewHow to use our weather pages